COSMOS 1275 DEB, 12962

Orbit data source: Space-Track

COSMOS 1275 DEB, 12962 is space debris in LEO originally from a launch on Thu, 04 Jun 1981 UTC launched from the Plesetsk Missile And Space Complex (PKMTR). Debris objects in space refer to the collection of defunct objects orbiting the Earth. Examples of debris include non-operational satellites, rocket bodies, and fragments generated from explosions, collisions, or faulty payload assembly.

Loading next visibility...
Identifier
12962, 1981-053EH
Orbit
LEO
Country
Flag of CISCIS
Related business
Manufacturer
Unknown
Mission
Spacecraft
Bus & Motor
Unknown
Mass
Unknown
Launch date (UTC)
1981-06-04 (44 years ago)
Launch vehicle
Unknown
Launch site
Plesetsk Missile And Space Complex (PKMTR)
Object type
Payload
Rocket body
Debris
Shape & HBR
Unknown shape, 0.1 m
Radar Cross Section
Small (<0.1 m²)

Expand to show TLE details & history
Last TLE update: 20 hours ago

TLE from 20 hours ago
0 COSMOS 1275 DEB
1 12962U 81053EH  25295.69312697  .00002021  00000-0  13017-2 0  9992
2 12962  82.9647 195.6217 0028510  86.6102 273.8330 14.02397157227217
Epoch: 2025-10-22T16:38Z
TLE epoch observation values (Epoch: 2025-10-22T16:38:06.170Z)
Latitude
-0.00001°
Longitude
-85.26708°
Altitude
887.119 km
Speed
7.409 km/s
True Right ascension
13h 02m 29s
True Declination
0° 00' 00"
Sunlit
Object was in daylight at epoch
Visualization orbit readout
Latitude
Unknown
Longitude
Unknown
Altitude
Unknown
Speed
Unknown
Apparent Right ascension
Unknown
Apparent Declination
Unknown
Sunlit
N/A
Visualization observer readout
Local Sidereal Time
08:03:44
Azimuth
Unknown
Elevation
Unknown
Doppler factor
Unknown
Orbital elements
Apogee altitude
903.317 km
Perigee altitude
861.916 km
Semi-major axis
7,260.753 km
Eccentricity
0.00285
Inclination
82.9647°
RAAN
195.6217°
Arg. of periapsis
86.6102°
True anomaly
273.50695°
Mean anomaly
273.833°
Eccentric anomaly
273.66998°
Mean motion
3.50809 °/min
Orbital period
102.62 mins
BSTAR
0.0013017
Loading maneuver chart data...
Computing Atmospheric mass density...

Documentation

Showing up to 5 results
|